| time (UTC) | temp F | wind direction | speed knots | gust knots | rain 1hr in | rain 24hr in | rain mn in | humidity % | barometer mb |
| 20260904131516 | 79 | 255 | 1.7 | 4.3 | 0.00 | 0.00 | 0.00 | 87 | 1016.3 |
| 20260904131036 | 78 | 222 | 1.7 | 4.3 | 0.00 | 0.00 | 0.00 | 89 | 1016.3 |
| 20260904130516 | 78 | 216 | 1.7 | 6.1 | 0.00 | 0.00 | 0.00 | 91 | 1016.2 |
| 20260904130116 | 77 | 294 | 1.7 | 3.5 | 0.00 | 0.00 | 0.00 | 93 | 1016.2 |
| 20260904125517 | 77 | 312 | 0.9 | 3.5 | 0.00 | 0.00 | 0.00 | 94 | 1016.2 |
| 20260904125017 | 76 | 288 | 1.7 | 4.3 | 0.00 | 0.00 | 0.00 | 95 | 1016.2 |
| 20260904124517 | 76 | 211 | 0.9 | 3.5 | 0.00 | 0.00 | 0.00 | 96 | 1016.1 |
| 20260904124057 | 75 | 223 | 0.9 | 2.6 | 0.00 | 0.00 | 0.00 | 97 | 1016.1 |
| 20260904123537 | 75 | 201 | 0.9 | 6.1 | 0.00 | 0.00 | 0.00 | 97 | 1016.1 |
| 20260904123016 | 75 | 210 | 0.9 | 3.5 | 0.00 | 0.00 | 0.00 | 97 | 1016.0 |
| 20260904122517 | 75 | 181 | 0.9 | 3.5 | 0.00 | 0.00 | 0.00 | 98 | 1016.0 |
| 20260904122017 | 74 | 192 | 0.9 | 5.2 | 0.00 | 0.00 | 0.00 | 98 | 1015.9 |
| 20260904121517 | 74 | 203 | 0.9 | 1.7 | 0.00 | 0.00 | 0.00 | 98 | 1015.9 |
| 20260904121017 | 74 | 155 | 0.9 | 3.5 | 0.00 | 0.00 | 0.00 | 98 | 1015.8 |
| 20260904120517 | 74 | 151 | 1.7 | 3.5 | 0.00 | 0.00 | 0.00 | 99 | 1015.8 |
| 20260904120017 | 73 | 152 | 1.7 | 3.5 | 0.00 | 0.00 | 0.00 | 99 | 1015.8 |
| 20260904115517 | 73 | 176 | 1.7 | 4.3 | 0.00 | 0.00 | 0.00 | 98 | 1015.7 |
| 20260904115017 | 73 | 235 | 0.9 | 2.6 | 0.00 | 0.00 | 0.00 | 98 | 1015.6 |
| 20260904114517 | 73 | 190 | 0.9 | 3.5 | 0.00 | 0.00 | 0.00 | 98 | 1015.6 |
| 20260904114018 | 73 | 151 | 0.9 | 2.6 | 0.00 | 0.00 | 0.00 | 98 | 1015.6 |
| 20260904113517 | 73 | 163 | 0.9 | 2.6 | 0.00 | 0.00 | 0.00 | 98 | 1015.6 |
| 20260904113018 | 73 | 157 | 0.9 | 3.5 | 0.00 | 0.00 | 0.00 | 98 | 1015.5 |
| 20260904112558 | 73 | 58 | 0.9 | 1.7 | 0.00 | 0.00 | 0.00 | 98 | 1015.4 |
| 20260904112018 | 73 | 106 | 0.9 | 1.7 | 0.00 | 0.00 | 0.00 | 98 | 1015.4 |
| 20260904111518 | 73 | 98 | 0.9 | 2.6 | 0.00 | 0.00 | 0.00 | 98 | 1015.4 |
| 20260904111018 | 73 | 158 | 0.9 | 2.6 | 0.00 | 0.00 | 0.00 | 98 | 1015.4 |
| 20260904110518 | 74 | 227 | 0.9 | 1.7 | 0.00 | 0.00 | 0.00 | 98 | 1015.3 |
| 20260904110015 | 74 | 230 | 0.9 | 3.5 | 0.00 | 0.00 | 0.00 | 98 | 1015.3 |
| 20260904105518 | 74 | 248 | 0.9 | 2.6 | 0.00 | 0.00 | 0.00 | 98 | 1015.3 |
| 20260904105015 | 74 | 196 | 0.9 | 2.6 | 0.00 | 0.00 | 0.00 | 98 | 1015.2 |
| 20260904104516 | 74 | 154 | 0.9 | 2.6 | 0.00 | 0.00 | 0.00 | 98 | 1015.2 |
| 20260904104016 | 74 | 141 | 0.9 | 2.6 | 0.00 | 0.00 | 0.00 | 98 | 1015.2 |
| 20260904103516 | 74 | 118 | 0.9 | 2.6 | 0.00 | 0.00 | 0.00 | 98 | 1015.2 |
| 20260904103017 | 74 | 164 | 0.9 | 1.7 | 0.00 | 0.00 | 0.00 | 98 | 1015.2 |
| 20260904102517 | 74 | 173 | 0.9 | 2.6 | 0.00 | 0.00 | 0.00 | 98 | 1015.2 |
| 20260904102017 | 74 | 177 | 0.9 | 3.5 | 0.00 | 0.00 | 0.00 | 98 | 1015.2 |
| 20260904101517 | 74 | 167 | 0.9 | 2.6 | 0.00 | 0.00 | 0.00 | 98 | 1015.2 |
| 20260904101017 | 74 | 120 | 0.9 | 2.6 | 0.00 | 0.00 | 0.00 | 98 | 1015.2 |
| 20260904100517 | 74 | 150 | 0.9 | 3.5 | 0.00 | 0.00 | 0.00 | 98 | 1015.1 |
| 20260904100017 | 74 | 151 | 0.9 | 2.6 | 0.00 | 0.00 | 0.00 | 98 | 1015.1 |
| 20260904095517 | 74 | 13 | 0.0 | 1.7 | 0.00 | 0.00 | 0.00 | 98 | 1015.0 |
| 20260904095017 | 74 | 188 | 0.9 | 2.6 | 0.00 | 0.00 | 0.00 | 98 | 1015.0 |
| 20260904094517 | 74 | 143 | 0.9 | 2.6 | 0.00 | 0.00 | 0.00 | 98 | 1015.0 |
| 20260904094017 | 74 | 151 | 0.9 | 2.6 | 0.00 | 0.00 | 0.00 | 98 | 1014.9 |
| 20260904093517 | 74 | 150 | 0.9 | 2.6 | 0.00 | 0.00 | 0.00 | 98 | 1014.8 |
| 20260904093017 | 74 | 122 | 0.9 | 2.6 | 0.00 | 0.00 | 0.00 | 98 | 1014.8 |
| 20260904092518 | 74 | 168 | 0.9 | 1.7 | 0.00 | 0.00 | 0.00 | 98 | 1014.7 |
| 20260904092018 | 74 | 166 | 0.9 | 1.7 | 0.00 | 0.00 | 0.00 | 98 | 1014.7 |
| 20260904091518 | 74 | 138 | 0.9 | 1.7 | 0.00 | 0.00 | 0.00 | 98 | 1014.7 |
| 20260904091017 | 74 | 169 | 0.9 | 2.6 | 0.00 | 0.00 | 0.00 | 98 | 1014.7 |
| 20260904090538 | 74 | 157 | 0.9 | 6.1 | 0.00 | 0.00 | 0.00 | 98 | 1014.7 |
| 20260904090018 | 74 | 318 | 0.9 | 1.7 | 0.00 | 0.00 | 0.00 | 98 | 1014.7 |
| 20260904085518 | 74 | 66 | 0.9 | 1.7 | 0.00 | 0.00 | 0.00 | 97 | 1014.7 |
| 20260904085018 | 74 | 290 | 0.9 | 1.7 | 0.00 | 0.00 | 0.00 | 97 | 1014.7 |
| 20260904084518 | 74 | 332 | 0.9 | 2.6 | 0.00 | 0.00 | 0.00 | 97 | 1014.6 |
| 20260904084018 | 74 | 302 | 0.0 | 1.7 | 0.00 | 0.00 | 0.00 | 97 | 1014.5 |
| 20260904083558 | 74 | 154 | 0.9 | 2.6 | 0.00 | 0.00 | 0.00 | 97 | 1014.5 |
| 20260904083015 | 74 | 243 | 0.9 | 2.6 | 0.00 | 0.00 | 0.00 | 97 | 1014.5 |
| 20260904082536 | 75 | 192 | 0.9 | 2.6 | 0.00 | 0.00 | 0.00 | 97 | 1014.5 |
| 20260904082016 | 75 | 168 | 0.9 | 2.6 | 0.00 | 0.00 | 0.00 | 97 | 1014.5 |
| 20260904081516 | 75 | 199 | 0.9 | 1.7 | 0.00 | 0.00 | 0.00 | 97 | 1014.5 |
| 20260904081015 | 75 | 183 | 0.0 | 1.7 | 0.00 | 0.00 | 0.00 | 97 | 1014.5 |
| 20260904080516 | 75 | 212 | 0.9 | 1.7 | 0.00 | 0.00 | 0.00 | 97 | 1014.6 |
| 20260904080015 | 75 | 169 | 0.9 | 2.6 | 0.00 | 0.00 | 0.00 | 96 | 1014.6 |
| 20260904075536 | 75 | 166 | 0.0 | 1.7 | 0.00 | 0.00 | 0.00 | 96 | 1014.6 |
| 20260904075036 | 75 | 228 | 0.0 | 0.9 | 0.00 | 0.00 | 0.00 | 96 | 1014.6 |
| 20260904074516 | 75 | 154 | 0.9 | 1.7 | 0.00 | 0.00 | 0.00 | 96 | 1014.5 |
| 20260904074036 | 75 | 171 | 0.9 | 2.6 | 0.00 | 0.00 | 0.00 | 97 | 1014.5 |
| 20260904073517 | 75 | 183 | 0.9 | 2.6 | 0.00 | 0.00 | 0.00 | 97 | 1014.6 |
| 20260904073016 | 75 | 191 | 0.9 | 1.7 | 0.00 | 0.00 | 0.00 | 97 | 1014.6 |
| 20260904072517 | 75 | 188 | 0.9 | 1.7 | 0.00 | 0.00 | 0.00 | 97 | 1014.7 |
| 20260904072017 | 75 | 165 | 0.9 | 4.3 | 0.00 | 0.00 | 0.00 | 96 | 1014.7 |
| 20260904071517 | 75 | 196 | 0.9 | 3.5 | 0.00 | 0.00 | 0.00 | 96 | 1014.7 |
| 20260904071017 | 75 | 243 | 0.9 | 1.7 | 0.00 | 0.00 | 0.00 | 96 | 1014.6 |
| 20260904070517 | 75 | 15 | 0.0 | 1.7 | 0.00 | 0.00 | 0.00 | 96 | 1014.6 |
| 20260904070017 | 75 | 98 | 0.9 | 1.7 | 0.00 | 0.00 | 0.00 | 96 | 1014.6 |
| 20260904065516 | 75 | 60 | 0.9 | 0.9 | 0.00 | 0.00 | 0.00 | 96 | 1014.6 |
| 20260904065017 | 75 | 329 | 0.9 | 0.9 | 0.00 | 0.00 | 0.00 | 96 | 1014.6 |
| 20260904064517 | 76 | 316 | 0.9 | 0.9 | 0.00 | 0.00 | 0.00 | 95 | 1014.6 |
| 20260904064038 | 76 | 314 | 0.9 | 0.9 | 0.00 | 0.00 | 0.00 | 95 | 1014.6 |
| 20260904063558 | 76 | 317 | 0.9 | 0.9 | 0.00 | 0.00 | 0.00 | 95 | 1014.6 |
| 20260904063018 | 76 | 317 | 0.9 | 0.9 | 0.00 | 0.00 | 0.00 | 95 | 1014.6 |
| 20260904062518 | 76 | 316 | 0.9 | 0.9 | 0.00 | 0.00 | 0.00 | 94 | 1014.6 |
| 20260904062018 | 76 | 317 | 0.9 | 0.9 | 0.00 | 0.00 | 0.00 | 94 | 1014.7 |
| 20260904061518 | 76 | 178 | 0.9 | 0.9 | 0.00 | 0.00 | 0.00 | 94 | 1014.7 |
| 20260904061038 | 76 | 140 | 0.9 | 0.9 | 0.00 | 0.00 | 0.00 | 94 | 1014.7 |
| 20260904060518 | 76 | 139 | 0.9 | 0.9 | 0.00 | 0.00 | 0.00 | 93 | 1014.7 |
| 20260904060018 | 76 | 140 | 0.9 | 0.9 | 0.00 | 0.00 | 0.00 | 93 | 1014.7 |
| 20260904055518 | 76 | 136 | 0.9 | 0.9 | 0.00 | 0.00 | 0.00 | 94 | 1014.7 |
| 20260904055018 | 76 | 125 | 0.9 | 0.9 | 0.00 | 0.00 | 0.00 | 94 | 1014.7 |
| 20260904054518 | 76 | 60 | 0.9 | 0.9 | 0.00 | 0.00 | 0.00 | 94 | 1014.8 |
| 20260904054015 | 76 | 317 | 0.9 | 0.9 | 0.00 | 0.00 | 0.00 | 93 | 1014.8 |
| 20260904053516 | 77 | 317 | 0.9 | 0.9 | 0.00 | 0.00 | 0.00 | 93 | 1014.8 |
| 20260904053016 | 77 | 318 | 0.0 | 0.9 | 0.00 | 0.00 | 0.00 | 93 | 1014.8 |
| 20260904052556 | 77 | 315 | 0.9 | 0.9 | 0.00 | 0.00 | 0.00 | 92 | 1014.9 |
| 20260904052016 | 77 | 316 | 0.0 | 0.9 | 0.00 | 0.00 | 0.00 | 92 | 1014.9 |
| 20260904051516 | 77 | 318 | 0.0 | 0.9 | 0.00 | 0.00 | 0.00 | 92 | 1014.9 |
| 20260904051016 | 77 | 315 | 0.0 | 0.9 | 0.00 | 0.00 | 0.00 | 92 | 1015.0 |
| 20260904050516 | 77 | 319 | 0.0 | 0.9 | 0.00 | 0.00 | 0.00 | 92 | 1015.0 |
| 20260904050016 | 77 | 321 | 0.0 | 0.9 | 0.00 | 0.00 | 0.00 | 91 | 1015.1 |
| 20260904045536 | 77 | 122 | 0.9 | 2.6 | 0.00 | 0.00 | 0.00 | 91 | 1015.0 |
| 20260904045017 | 78 | 138 | 0.9 | 3.5 | 0.00 | 0.00 | 0.00 | 90 | 1015.0 |
| 20260904044516 | 78 | 138 | 1.7 | 3.5 | 0.00 | 0.00 | 0.00 | 90 | 1015.1 |
| 20260904044016 | 78 | 160 | 0.9 | 3.5 | 0.00 | 0.00 | 0.00 | 90 | 1015.1 |
| 20260904043517 | 78 | 152 | 0.9 | 4.3 | 0.00 | 0.00 | 0.00 | 89 | 1015.1 |
| 20260904043016 | 78 | 146 | 1.7 | 3.5 | 0.00 | 0.00 | 0.00 | 90 | 1015.1 |
| 20260904042517 | 78 | 139 | 0.9 | 3.5 | 0.00 | 0.00 | 0.00 | 90 | 1015.2 |
| 20260904042017 | 78 | 308 | 0.9 | 3.5 | 0.00 | 0.00 | 0.00 | 90 | 1015.2 |
| 20260904041517 | 78 | 314 | 0.9 | 3.5 | 0.00 | 0.00 | 0.00 | 90 | 1015.1 |
| 20260904041017 | 78 | 315 | 0.9 | 3.5 | 0.00 | 0.00 | 0.00 | 89 | 1015.2 |
| 20260904040517 | 78 | 316 | 0.9 | 2.6 | 0.00 | 0.00 | 0.00 | 89 | 1015.2 |
| 20260904040037 | 78 | 313 | 0.9 | 4.3 | 0.00 | 0.00 | 0.00 | 89 | 1015.2 |
| 20260904035537 | 78 | 316 | 0.9 | 5.2 | 0.00 | 0.00 | 0.00 | 89 | 1015.2 |
| 20260904035017 | 78 | 310 | 0.9 | 3.5 | 0.00 | 0.00 | 0.00 | 89 | 1015.3 |
| 20260904034517 | 78 | 312 | 0.9 | 2.6 | 0.00 | 0.00 | 0.00 | 89 | 1015.2 |
| 20260904034018 | 78 | 316 | 0.9 | 2.6 | 0.00 | 0.00 | 0.00 | 89 | 1015.2 |
| 20260904033518 | 79 | 302 | 1.7 | 4.3 | 0.00 | 0.00 | 0.00 | 89 | 1015.2 |
| 20260904033017 | 79 | 263 | 0.9 | 2.6 | 0.00 | 0.00 | 0.00 | 89 | 1015.1 |
| 20260904032517 | 79 | 239 | 0.9 | 3.5 | 0.00 | 0.00 | 0.00 | 89 | 1015.1 |
| 20260904032018 | 79 | 146 | 1.7 | 3.5 | 0.00 | 0.00 | 0.00 | 88 | 1015.1 |
| 20260904031518 | 79 | 175 | 1.7 | 4.3 | 0.00 | 0.00 | 0.00 | 88 | 1015.1 |
| 20260904031018 | 79 | 201 | 1.7 | 4.3 | 0.00 | 0.00 | 0.00 | 87 | 1015.1 |
| 20260904030518 | 79 | 157 | 1.7 | 4.3 | 0.00 | 0.00 | 0.00 | 87 | 1015.2 |
| 20260904030018 | 79 | 176 | 1.7 | 4.3 | 0.00 | 0.00 | 0.00 | 87 | 1015.2 |
| 20260904025538 | 80 | 252 | 0.9 | 3.5 | 0.00 | 0.00 | 0.00 | 86 | 1015.1 |
| 20260904025018 | 80 | 318 | 0.9 | 0.9 | 0.00 | 0.00 | 0.00 | 86 | 1015.1 |
| 20260904024519 | 80 | 299 | 0.9 | 1.7 | 0.00 | 0.00 | 0.00 | 86 | 1015.2 |
| 20260904024015 | 80 | 269 | 0.9 | 2.6 | 0.00 | 0.00 | 0.00 | 85 | 1015.2 |
| 20260904023536 | 81 | 280 | 0.9 | 2.6 | 0.00 | 0.00 | 0.00 | 85 | 1015.2 |
| 20260904023016 | 81 | 177 | 1.7 | 4.3 | 0.00 | 0.00 | 0.00 | 84 | 1015.2 |
| 20260904022516 | 81 | 215 | 2.6 | 5.2 | 0.00 | 0.00 | 0.00 | 83 | 1015.2 |
| 20260904022016 | 81 | 228 | 1.7 | 4.3 | 0.00 | 0.00 | 0.00 | 82 | 1015.1 |
| 20260904021516 | 81 | 171 | 0.9 | 3.5 | 0.00 | 0.00 | 0.00 | 81 | 1015.1 |
| 20260904021036 | 82 | 151 | 0.9 | 3.5 | 0.00 | 0.00 | 0.00 | 81 | 1015.0 |
| 20260904020516 | 81 | 163 | 0.9 | 3.5 | 0.00 | 0.00 | 0.00 | 81 | 1015.0 |
| 20260904020015 | 82 | 298 | 1.7 | 3.5 | 0.00 | 0.00 | 0.00 | 81 | 1015.0 |
| 20260904015516 | 82 | 314 | 1.7 | 3.5 | 0.00 | 0.00 | 0.00 | 80 | 1014.9 |
| 20260904015016 | 82 | 314 | 0.9 | 2.6 | 0.00 | 0.00 | 0.00 | 80 | 1014.9 |
| 20260904014516 | 82 | 316 | 0.9 | 2.6 | 0.00 | 0.00 | 0.00 | 80 | 1014.7 |
| 20260904014016 | 82 | 315 | 0.9 | 1.7 | 0.00 | 0.00 | 0.00 | 79 | 1014.7 |
| 20260904013516 | 83 | 316 | 0.9 | 2.6 | 0.00 | 0.00 | 0.00 | 79 | 1014.6 |
| 20260904013016 | 83 | 316 | 0.0 | 0.9 | 0.00 | 0.00 | 0.00 | 79 | 1014.6 |
| 20260904012517 | 83 | 316 | 0.9 | 1.7 | 0.00 | 0.00 | 0.00 | 78 | 1014.6 |
| 20260904012017 | 84 | 311 | 0.9 | 2.6 | 0.00 | 0.00 | 0.00 | 76 | 1014.6 |
| 20260904011557 | 84 | 314 | 0.9 | 2.6 | 0.00 | 0.00 | 0.00 | 75 | 1014.5 |
| 20260904011017 | 84 | 315 | 0.9 | 0.9 | 0.00 | 0.00 | 0.00 | 74 | 1014.6 |
| 20260904010517 | 85 | 316 | 0.0 | 0.9 | 0.00 | 0.00 | 0.00 | 74 | 1014.5 |
| 20260904010017 | 86 | 316 | 0.9 | 0.9 | 0.00 | 0.00 | 0.00 | 73 | 1014.4 |
| 20260904005517 | 86 | 305 | 1.7 | 4.3 | 0.00 | 0.00 | 0.00 | 72 | 1014.4 |
| 20260904005018 | 87 | 299 | 1.7 | 4.3 | 0.00 | 0.00 | 0.00 | 71 | 1014.4 |
| 20260904004517 | 87 | 310 | 0.9 | 3.5 | 0.00 | 0.00 | 0.00 | 69 | 1014.3 |
| 20260904004017 | 88 | 315 | 0.9 | 2.6 | 0.00 | 0.00 | 0.00 | 66 | 1014.3 |
| 20260904003517 | 88 | 317 | 0.9 | 3.5 | 0.00 | 0.00 | 0.00 | 66 | 1014.4 |
| 20260904003037 | 89 | 299 | 1.7 | 4.3 | 0.00 | 0.00 | 0.00 | 64 | 1014.3 |
| 20260904002517 | 90 | 284 | 1.7 | 4.3 | 0.00 | 0.00 | 0.00 | 63 | 1014.3 |
| 20260904002018 | 91 | 171 | 0.9 | 3.5 | 0.00 | 0.00 | 0.00 | 62 | 1014.3 |
| 20260904001518 | 92 | 281 | 0.9 | 2.6 | 0.00 | 0.00 | 0.00 | 60 | 1014.3 |
| 20260904001018 | 92 | 290 | 0.9 | 2.6 | 0.00 | 0.00 | 0.00 | 58 | 1014.3 |
| 20260904000518 | 93 | 271 | 0.9 | 2.6 | 0.00 | 0.00 | 0.00 | 57 | 1014.3 |
| 20260904000018 | 94 | 250 | 0.0 | 0.9 | 0.00 | 0.00 | 0.00 | 55 | 1014.2 |
| 20260903235518 | 95 | 258 | 0.0 | 0.9 | 0.00 | 0.00 | 0.00 | 53 | 1014.1 |
| 20260903235018 | 96 | 287 | 0.0 | 0.9 | 0.00 | 0.00 | 0.00 | 52 | 1014.1 |
| 20260903234518 | 97 | 263 | 0.0 | 1.7 | 0.00 | 0.00 | 0.00 | 51 | 1014.1 |
| 20260903234018 | 97 | 263 | 0.0 | 0.9 | 0.00 | 0.00 | 0.00 | 50 | 1014.1 |
| 20260903233518 | 98 | 262 | 0.0 | 0.9 | 0.00 | 0.00 | 0.00 | 49 | 1014.0 |
| 20260903233036 | 98 | 228 | 0.0 | 2.6 | 0.00 | 0.00 | 0.00 | 48 | 1013.9 |
| 20260903232516 | 98 | 247 | 0.0 | 1.7 | 0.00 | 0.00 | 0.00 | 48 | 1014.0 |
| 20260903232015 | 97 | 261 | 0.0 | 2.6 | 0.00 | 0.00 | 0.00 | 49 | 1013.9 |
| 20260903231538 | 97 | 249 | 0.0 | 0.9 | 0.00 | 0.00 | 0.00 | 50 | 1013.9 |
| 20260903231015 | 97 | 193 | 0.9 | 5.2 | 0.00 | 0.00 | 0.00 | 49 | 1013.9 |
| 20260903230516 | 97 | 201 | 0.9 | 2.6 | 0.00 | 0.00 | 0.00 | 48 | 1013.8 |
| 20260903230016 | 98 | 197 | 1.7 | 3.5 | 0.00 | 0.00 | 0.00 | 48 | 1013.7 |
| 20260903225516 | 98 | 185 | 0.9 | 3.5 | 0.00 | 0.00 | 0.00 | 46 | 1013.7 |
| 20260903225016 | 99 | 199 | 0.9 | 3.5 | 0.00 | 0.00 | 0.00 | 47 | 1013.7 |
| 20260903224556 | 99 | 188 | 0.9 | 6.1 | 0.00 | 0.00 | 0.00 | 46 | 1013.6 |
| 20260903224016 | 99 | 217 | 0.0 | 1.7 | 0.00 | 0.00 | 0.00 | 45 | 1013.7 |
| 20260903223516 | 98 | 224 | 0.9 | 1.7 | 0.00 | 0.00 | 0.00 | 46 | 1013.8 |
| 20260903223016 | 98 | 204 | 0.0 | 2.6 | 0.00 | 0.00 | 0.00 | 47 | 1013.8 |
| 20260903222516 | 98 | 192 | 1.7 | 4.3 | 0.00 | 0.00 | 0.00 | 47 | 1013.8 |
| 20260903222017 | 99 | 181 | 1.7 | 6.1 | 0.00 | 0.00 | 0.00 | 46 | 1013.8 |
| 20260903221517 | 99 | 193 | 1.7 | 5.2 | 0.00 | 0.00 | 0.00 | 45 | 1013.7 |
| 20260903221017 | 99 | 192 | 0.9 | 2.6 | 0.00 | 0.00 | 0.00 | 46 | 1013.7 |
| 20260903220616 | 99 | 189 | 0.9 | 2.6 | 0.00 | 0.00 | 0.00 | 45 | 1013.7 |
| 20260903220017 | 99 | 193 | 0.9 | 2.6 | 0.00 | 0.00 | 0.00 | 45 | 1013.7 |
| 20260903215517 | 99 | 197 | 0.9 | 3.5 | 0.00 | 0.00 | 0.00 | 45 | 1013.7 |
| 20260903215017 | 99 | 205 | 0.9 | 2.6 | 0.00 | 0.00 | 0.00 | 46 | 1013.7 |
| 20260903214617 | 99 | 214 | 0.9 | 2.6 | 0.00 | 0.00 | 0.00 | 46 | 1013.7 |
| 20260903214038 | 99 | 193 | 1.7 | 6.1 | 0.00 | 0.00 | 0.00 | 45 | 1013.8 |
| 20260903213537 | 99 | 180 | 1.7 | 5.2 | 0.00 | 0.00 | 0.00 | 43 | 1013.8 |
| 20260903213017 | 100 | 214 | 2.6 | 6.1 | 0.00 | 0.00 | 0.00 | 43 | 1013.9 |
| 20260903212517 | 99 | 209 | 0.9 | 5.2 | 0.00 | 0.00 | 0.00 | 44 | 1013.9 |
| 20260903212017 | 99 | 190 | 1.7 | 4.3 | 0.00 | 0.00 | 0.00 | 44 | 1014.0 |
| 20260903211538 | 99 | 183 | 1.7 | 4.3 | 0.00 | 0.00 | 0.00 | 44 | 1014.0 |
| 20260903211016 | 99 | 175 | 0.9 | 2.6 | 0.00 | 0.00 | 0.00 | 44 | 1014.1 |
| 20260903210516 | 99 | 189 | 0.9 | 3.5 | 0.00 | 0.00 | 0.00 | 45 | 1014.1 |
| 20260903210016 | 100 | 186 | 2.6 | 7.0 | 0.00 | 0.00 | 0.00 | 44 | 1014.1 |
| 20260903205536 | 99 | 207 | 1.7 | 4.3 | 0.00 | 0.00 | 0.00 | 45 | 1014.2 |
| 20260903205016 | 99 | 278 | 0.0 | 0.9 | 0.00 | 0.00 | 0.00 | 45 | 1014.2 |
| 20260903204516 | 98 | 205 | 0.9 | 3.5 | 0.00 | 0.00 | 0.00 | 45 | 1014.2 |
| 20260903204016 | 99 | 192 | 0.9 | 4.3 | 0.00 | 0.00 | 0.00 | 45 | 1014.3 |
| 20260903203516 | 99 | 193 | 0.0 | 2.6 | 0.00 | 0.00 | 0.00 | 43 | 1014.3 |
| 20260903203017 | 99 | 241 | 0.0 | 1.7 | 0.00 | 0.00 | 0.00 | 44 | 1014.4 |
| 20260903202515 | 99 | 340 | 0.9 | 2.6 | 0.00 | 0.00 | 0.00 | 44 | 1014.5 |
| 20260903202036 | 99 | 202 | 1.7 | 5.2 | 0.00 | 0.00 | 0.00 | 44 | 1014.5 |
| 20260903201536 | 98 | 197 | 0.9 | 3.5 | 0.00 | 0.00 | 0.00 | 45 | 1014.6 |
| 20260903201056 | 98 | 212 | 1.7 | 4.3 | 0.00 | 0.00 | 0.00 | 45 | 1014.6 |
| 20260903200516 | 98 | 227 | 1.7 | 5.2 | 0.00 | 0.00 | 0.00 | 47 | 1014.6 |
| 20260903200016 | 97 | 214 | 1.7 | 4.3 | 0.00 | 0.00 | 0.00 | 47 | 1014.7 |
| 20260903195516 | 96 | 210 | 1.7 | 5.2 | 0.00 | 0.00 | 0.00 | 50 | 1014.8 |
| 20260903195016 | 96 | 298 | 0.9 | 2.6 | 0.00 | 0.00 | 0.00 | 49 | 1014.9 |
| 20260903194536 | 97 | 304 | 1.7 | 3.5 | 0.00 | 0.00 | 0.00 | 47 | 1015.0 |
| 20260903194016 | 97 | 281 | 0.9 | 1.7 | 0.00 | 0.00 | 0.00 | 45 | 1015.0 |
| 20260903193516 | 98 | 244 | 0.0 | 0.9 | 0.00 | 0.00 | 0.00 | 45 | 1015.1 |
| 20260903193016 | 98 | 309 | 0.9 | 2.6 | 0.00 | 0.00 | 0.00 | 45 | 1015.1 |
| 20260903192516 | 98 | 224 | 0.9 | 1.7 | 0.00 | 0.00 | 0.00 | 44 | 1015.1 |
| 20260903192017 | 99 | 249 | 0.0 | 0.9 | 0.00 | 0.00 | 0.00 | 43 | 1015.1 |
| 20260903191516 | 99 | 240 | 0.0 | 1.7 | 0.00 | 0.00 | 0.00 | 44 | 1015.2 |
| 20260903191037 | 99 | 205 | 1.7 | 5.2 | 0.00 | 0.00 | 0.00 | 43 | 1015.2 |
| 20260903190517 | 100 | 242 | 1.7 | 3.5 | 0.00 | 0.00 | 0.00 | 44 | 1015.2 |
| 20260903190037 | 99 | 335 | 1.7 | 2.6 | 0.00 | 0.00 | 0.00 | 44 | 1015.2 |
| 20260903185517 | 99 | 282 | 1.7 | 3.5 | 0.00 | 0.00 | 0.00 | 43 | 1015.3 |
| 20260903185017 | 99 | 269 | 1.7 | 4.3 | 0.00 | 0.00 | 0.00 | 43 | 1015.4 |
| 20260903184517 | 98 | 241 | 1.7 | 4.3 | 0.00 | 0.00 | 0.00 | 44 | 1015.4 |
| 20260903184017 | 98 | 219 | 1.7 | 6.1 | 0.00 | 0.00 | 0.00 | 45 | 1015.4 |
| 20260903183517 | 97 | 216 | 1.7 | 4.3 | 0.00 | 0.00 | 0.00 | 46 | 1015.5 |
| 20260903183017 | 97 | 202 | 1.7 | 3.5 | 0.00 | 0.00 | 0.00 | 46 | 1015.5 |
| 20260903182557 | 98 | 221 | 0.9 | 2.6 | 0.00 | 0.00 | 0.00 | 45 | 1015.6 |
| 20260903182017 | 98 | 217 | 1.7 | 3.5 | 0.00 | 0.00 | 0.00 | 45 | 1015.6 |
| 20260903181517 | 98 | 232 | 1.7 | 3.5 | 0.00 | 0.00 | 0.00 | 45 | 1015.7 |
| 20260903181017 | 97 | 277 | 2.6 | 6.1 | 0.00 | 0.00 | 0.00 | 46 | 1015.7 |
| 20260903180518 | 98 | 287 | 3.5 | 6.1 | 0.00 | 0.00 | 0.00 | 45 | 1015.8 |
| 20260903180018 | 99 | 249 | 1.7 | 4.3 | 0.00 | 0.00 | 0.00 | 44 | 1015.8 |
| 20260903175558 | 100 | 272 | 1.7 | 5.2 | 0.00 | 0.00 | 0.00 | 44 | 1015.8 |
| 20260903175038 | 99 | 260 | 0.9 | 2.6 | 0.00 | 0.00 | 0.00 | 44 | 1015.9 |
| 20260903174518 | 99 | 16 | 1.7 | 4.3 | 0.00 | 0.00 | 0.00 | 44 | 1015.9 |
| 20260903174018 | 99 | 277 | 1.7 | 3.5 | 0.00 | 0.00 | 0.00 | 44 | 1016.0 |
| 20260903173518 | 98 | 240 | 1.7 | 5.2 | 0.00 | 0.00 | 0.00 | 44 | 1016.0 |
| 20260903173038 | 97 | 231 | 0.9 | 3.5 | 0.00 | 0.00 | 0.00 | 45 | 1016.0 |
| 20260903172518 | 97 | 269 | 0.9 | 2.6 | 0.00 | 0.00 | 0.00 | 45 | 1016.1 |
| 20260903172015 | 96 | 281 | 0.9 | 3.5 | 0.00 | 0.00 | 0.00 | 47 | 1016.2 |
| 20260903171515 | 96 | 304 | 0.9 | 4.3 | 0.00 | 0.00 | 0.00 | 46 | 1016.3 |
| 20260903171016 | 96 | 300 | 3.5 | 6.1 | 0.00 | 0.00 | 0.00 | 46 | 1016.2 |
| 20260903170556 | 97 | 274 | 4.3 | 7.8 | 0.00 | 0.00 | 0.00 | 45 | 1016.3 |
| 20260903170016 | 97 | 303 | 2.6 | 6.1 | 0.00 | 0.00 | 0.00 | 45 | 1016.3 |
| 20260903165516 | 98 | 309 | 2.6 | 6.1 | 0.00 | 0.00 | 0.00 | 46 | 1016.4 |
| 20260903165016 | 98 | 294 | 1.7 | 5.2 | 0.00 | 0.00 | 0.00 | 44 | 1016.4 |
| 20260903164516 | 97 | 250 | 0.9 | 2.6 | 0.00 | 0.00 | 0.00 | 45 | 1016.4 |
| 20260903164016 | 97 | 285 | 1.7 | 3.5 | 0.00 | 0.00 | 0.00 | 46 | 1016.5 |
| 20260903163516 | 97 | 278 | 2.6 | 5.2 | 0.00 | 0.00 | 0.00 | 47 | 1016.6 |
| 20260903163036 | 97 | 285 | 1.7 | 4.3 | 0.00 | 0.00 | 0.00 | 46 | 1016.6 |
| 20260903162516 | 97 | 250 | 0.9 | 2.6 | 0.00 | 0.00 | 0.00 | 47 | 1016.6 |
| 20260903162016 | 96 | 251 | 1.7 | 2.6 | 0.00 | 0.00 | 0.00 | 47 | 1016.7 |
| 20260903161516 | 96 | 300 | 0.9 | 2.6 | 0.00 | 0.00 | 0.00 | 49 | 1016.7 |
| 20260903161016 | 95 | 303 | 1.7 | 3.5 | 0.00 | 0.00 | 0.00 | 50 | 1016.7 |
| 20260903160517 | 95 | 301 | 2.6 | 7.0 | 0.00 | 0.00 | 0.00 | 50 | 1016.7 |
| 20260903160017 | 96 | 300 | 3.5 | 7.0 | 0.00 | 0.00 | 0.00 | 50 | 1016.7 |
| 20260903155517 | 96 | 284 | 1.7 | 3.5 | 0.00 | 0.00 | 0.00 | 50 | 1016.7 |
| 20260903155016 | 95 | 295 | 0.9 | 2.6 | 0.00 | 0.00 | 0.00 | 50 | 1016.7 |
| 20260903154517 | 94 | 222 | 0.9 | 3.5 | 0.00 | 0.00 | 0.00 | 51 | 1016.7 |
| 20260903154017 | 94 | 271 | 1.7 | 6.1 | 0.00 | 0.00 | 0.00 | 52 | 1016.7 |
| 20260903153517 | 94 | 297 | 1.7 | 4.3 | 0.00 | 0.00 | 0.00 | 53 | 1016.8 |
| 20260903153017 | 94 | 280 | 1.7 | 2.6 | 0.00 | 0.00 | 0.00 | 53 | 1016.8 |
| 20260903152517 | 93 | 272 | 1.7 | 4.3 | 0.00 | 0.00 | 0.00 | 56 | 1016.9 |
| 20260903152037 | 93 | 293 | 1.7 | 3.5 | 0.00 | 0.00 | 0.00 | 59 | 1016.9 |
| 20260903151538 | 92 | 273 | 1.7 | 2.6 | 0.00 | 0.00 | 0.00 | 60 | 1016.9 |
| 20260903151057 | 92 | 225 | 0.9 | 4.3 | 0.00 | 0.00 | 0.00 | 60 | 1017.0 |
| 20260903150517 | 91 | 267 | 1.7 | 6.1 | 0.00 | 0.00 | 0.00 | 61 | 1016.9 |
| 20260903150017 | 91 | 230 | 1.7 | 3.5 | 0.00 | 0.00 | 0.00 | 62 | 1016.9 |
| 20260903145518 | 90 | 203 | 1.7 | 4.3 | 0.00 | 0.00 | 0.00 | 63 | 1016.9 |
| 20260903145018 | 90 | 316 | 0.9 | 0.9 | 0.00 | 0.00 | 0.00 | 64 | 1016.8 |
| 20260903144538 | 89 | 316 | 0.9 | 0.9 | 0.00 | 0.00 | 0.00 | 65 | 1016.8 |
| 20260903144038 | 88 | 316 | 0.9 | 0.9 | 0.00 | 0.00 | 0.00 | 66 | 1016.8 |
| 20260903143538 | 88 | 315 | 0.9 | 0.9 | 0.00 | 0.00 | 0.00 | 68 | 1016.8 |
| 20260903143038 | 87 | 316 | 0.0 | 0.9 | 0.00 | 0.00 | 0.00 | 69 | 1016.9 |
| 20260903142518 | 87 | 316 | 0.0 | 0.9 | 0.00 | 0.00 | 0.00 | 70 | 1017.0 |
| 20260903142015 | 86 | 316 | 0.0 | 0.9 | 0.00 | 0.00 | 0.00 | 71 | 1016.9 |
| 20260903141515 | 85 | 316 | 0.0 | 0.9 | 0.00 | 0.00 | 0.00 | 73 | 1017.0 |
| 20260903141015 | 85 | 316 | 0.0 | 0.9 | 0.00 | 0.00 | 0.00 | 74 | 1017.1 |
| 20260903140515 | 84 | 316 | 0.9 | 0.9 | 0.00 | 0.00 | 0.00 | 74 | 1017.1 |
| 20260903140016 | 84 | 315 | 0.0 | 0.9 | 0.00 | 0.00 | 0.00 | 76 | 1017.1 |
| 20260903135516 | 83 | 316 | 0.9 | 0.9 | 0.00 | 0.00 | 0.00 | 77 | 1017.1 |
| 20260903135016 | 83 | 316 | 0.9 | 1.7 | 0.00 | 0.00 | 0.00 | 77 | 1017.1 |
| 20260903134516 | 83 | 313 | 0.9 | 2.6 | 0.00 | 0.00 | 0.00 | 78 | 1017.1 |
| 20260903134016 | 82 | 308 | 0.9 | 2.6 | 0.00 | 0.00 | 0.00 | 80 | 1017.1 |
| 20260903133516 | 81 | 306 | 0.9 | 2.6 | 0.00 | 0.00 | 0.00 | 81 | 1017.1 |
| 20260903133016 | 81 | 304 | 1.7 | 3.5 | 0.00 | 0.00 | 0.00 | 83 | 1017.1 |
| 20260903132516 | 80 | 298 | 1.7 | 4.3 | 0.00 | 0.00 | 0.00 | 84 | 1017.2 |
| 20260903132016 | 80 | 266 | 2.6 | 4.3 | 0.00 | 0.00 | 0.00 | 84 | 1017.2 |